Year,Month,Day,Hour,Minute,Value (Times are PST for temperature in C)
2014,05,31,00,00,13.10
2014,05,31,00,01,13.00
2014,05,31,00,02,13.00
2014,05,31,00,03,12.90
2014,05,31,00,04,12.90
2014,05,31,00,05,12.90
2014,05,31,00,06,12.90
2014,05,31,00,07,12.90
2014,05,31,00,08,12.90
2014,05,31,00,09,12.90
2014,05,31,00,10,12.80
2014,05,31,00,11,12.80
2014,05,31,00,12,12.80
2014,05,31,00,13,12.80
2014,05,31,00,14,12.80
2014,05,31,00,15,12.80
2014,05,31,00,16,12.80
2014,05,31,00,17,12.80
2014,05,31,00,18,12.80
2014,05,31,00,19,12.80
2014,05,31,00,20,12.80
2014,05,31,00,21,12.80
2014,05,31,00,22,12.80
2014,05,31,00,23,12.80
2014,05,31,00,24,12.80
2014,05,31,00,25,12.80
2014,05,31,00,26,12.80
2014,05,31,00,27,12.80
2014,05,31,00,28,12.80
2014,05,31,00,29,12.80
2014,05,31,00,30,12.80
2014,05,31,00,31,12.80
2014,05,31,00,32,12.80
2014,05,31,00,33,12.80
2014,05,31,00,34,12.80
2014,05,31,00,35,12.80
2014,05,31,00,36,12.80
2014,05,31,00,37,12.80
2014,05,31,00,38,12.90
2014,05,31,00,39,12.90
2014,05,31,00,40,12.90
2014,05,31,00,41,12.90
2014,05,31,00,42,12.90
2014,05,31,00,43,12.90
2014,05,31,00,44,13.00
2014,05,31,00,45,13.00
2014,05,31,00,46,13.00
2014,05,31,00,47,13.00
2014,05,31,00,48,13.00
2014,05,31,00,49,12.90
2014,05,31,00,50,12.90
2014,05,31,00,51,12.90
2014,05,31,00,52,12.90
2014,05,31,00,53,12.90
2014,05,31,00,54,12.90
2014,05,31,00,55,12.90
2014,05,31,00,56,12.90
2014,05,31,00,57,13.00
2014,05,31,00,58,13.00
2014,05,31,00,59,13.10
2014,05,31,01,00,13.10
2014,05,31,01,01,13.10
2014,05,31,01,02,13.20
2014,05,31,01,03,13.30
2014,05,31,01,04,13.30
2014,05,31,01,05,13.40
2014,05,31,01,06,13.40
2014,05,31,01,07,13.40
2014,05,31,01,08,13.40
2014,05,31,01,09,13.40
2014,05,31,01,10,13.40
2014,05,31,01,11,13.40
2014,05,31,01,12,13.40
2014,05,31,01,13,13.50
2014,05,31,01,14,13.50
2014,05,31,01,15,13.50
2014,05,31,01,16,13.50
2014,05,31,01,17,13.50
2014,05,31,01,18,13.50
2014,05,31,01,19,13.50
2014,05,31,01,20,13.60
2014,05,31,01,21,13.60
2014,05,31,01,22,13.60
2014,05,31,01,23,13.60
2014,05,31,01,24,13.60
2014,05,31,01,25,13.60
2014,05,31,01,26,13.60
2014,05,31,01,27,13.60
2014,05,31,01,28,13.50
2014,05,31,01,29,13.50
2014,05,31,01,30,13.50
2014,05,31,01,31,13.50
2014,05,31,01,32,13.50
2014,05,31,01,33,13.50
2014,05,31,01,34,13.40
2014,05,31,01,35,13.40
2014,05,31,01,36,13.40
2014,05,31,01,37,13.40
2014,05,31,01,38,13.40
2014,05,31,01,39,13.30
2014,05,31,01,40,13.30
2014,05,31,01,41,13.30
2014,05,31,01,42,13.30
2014,05,31,01,43,13.20
2014,05,31,01,44,13.20
2014,05,31,01,45,13.20
2014,05,31,01,46,13.10
2014,05,31,01,47,13.10
2014,05,31,01,48,13.10
2014,05,31,01,49,13.10
2014,05,31,01,50,13.00
2014,05,31,01,51,13.00
2014,05,31,01,52,12.90
2014,05,31,01,53,12.90
2014,05,31,01,54,12.90
2014,05,31,01,55,12.80
2014,05,31,01,56,12.80
2014,05,31,01,57,12.80
2014,05,31,01,58,12.70
2014,05,31,01,59,12.70
2014,05,31,02,00,12.60
2014,05,31,02,01,12.60
2014,05,31,02,02,12.50
2014,05,31,02,03,12.50
2014,05,31,02,04,12.40
2014,05,31,02,05,12.40
2014,05,31,02,06,12.30
2014,05,31,02,07,12.30
2014,05,31,02,08,12.20
2014,05,31,02,09,12.20
2014,05,31,02,10,12.20
2014,05,31,02,11,12.10
2014,05,31,02,12,12.10
2014,05,31,02,13,12.10
2014,05,31,02,14,12.10
2014,05,31,02,15,12.00
2014,05,31,02,16,12.00
2014,05,31,02,17,11.90
2014,05,31,02,18,11.90
2014,05,31,02,19,11.90
2014,05,31,02,20,11.90
2014,05,31,02,21,11.90
2014,05,31,02,22,11.80
2014,05,31,02,23,11.80
2014,05,31,02,24,11.80
2014,05,31,02,25,11.80
2014,05,31,02,26,11.70
2014,05,31,02,27,11.70
2014,05,31,02,28,11.70
2014,05,31,02,29,11.70
2014,05,31,02,30,11.70
2014,05,31,02,31,11.60
2014,05,31,02,32,11.60
2014,05,31,02,33,11.60
2014,05,31,02,34,11.50
2014,05,31,02,35,11.50
2014,05,31,02,36,11.50
2014,05,31,02,37,11.40
2014,05,31,02,38,11.40
2014,05,31,02,39,11.40
2014,05,31,02,40,11.40
2014,05,31,02,41,11.30
2014,05,31,02,42,11.30
2014,05,31,02,43,11.30
2014,05,31,02,44,11.30
2014,05,31,02,45,11.30
2014,05,31,02,46,11.30
2014,05,31,02,47,11.30
2014,05,31,02,48,11.20
2014,05,31,02,49,11.20
2014,05,31,02,50,11.20
2014,05,31,02,51,11.20
2014,05,31,02,52,11.20
2014,05,31,02,53,11.10
2014,05,31,02,54,11.10
2014,05,31,02,55,11.10
2014,05,31,02,56,11.10
2014,05,31,02,57,11.10
2014,05,31,02,58,11.00
2014,05,31,02,59,11.00
2014,05,31,03,00,11.00
2014,05,31,03,01,10.90
2014,05,31,03,02,10.90
2014,05,31,03,03,10.90
2014,05,31,03,04,10.90
2014,05,31,03,05,10.90
2014,05,31,03,06,10.90
2014,05,31,03,07,10.80
2014,05,31,03,08,10.80
2014,05,31,03,09,10.80
2014,05,31,03,10,10.80
2014,05,31,03,11,10.80
2014,05,31,03,12,10.80
2014,05,31,03,13,10.80
2014,05,31,03,14,10.70
2014,05,31,03,15,10.70
2014,05,31,03,16,10.70
2014,05,31,03,17,10.70
2014,05,31,03,18,10.70
2014,05,31,03,19,10.70
2014,05,31,03,20,10.70
2014,05,31,03,21,10.70
2014,05,31,03,22,10.70
2014,05,31,03,23,10.70
2014,05,31,03,24,10.70
2014,05,31,03,25,10.60
2014,05,31,03,26,10.60
2014,05,31,03,27,10.60
2014,05,31,03,28,10.60
2014,05,31,03,29,10.60
2014,05,31,03,30,10.60
2014,05,31,03,31,10.60
2014,05,31,03,32,10.60
2014,05,31,03,33,10.60
2014,05,31,03,34,10.60
2014,05,31,03,35,10.60
2014,05,31,03,36,10.50
2014,05,31,03,37,10.50
2014,05,31,03,38,10.50
2014,05,31,03,39,10.50
2014,05,31,03,40,10.50
2014,05,31,03,41,10.50
2014,05,31,03,42,10.50
2014,05,31,03,43,10.50
2014,05,31,03,44,10.40
2014,05,31,03,45,10.40
2014,05,31,03,46,10.40
2014,05,31,03,47,10.40
2014,05,31,03,48,10.40
2014,05,31,03,49,10.40
2014,05,31,03,50,10.40
2014,05,31,03,51,10.40
2014,05,31,03,52,10.40
2014,05,31,03,53,10.40
2014,05,31,03,54,10.40
2014,05,31,03,55,10.40
2014,05,31,03,56,10.40
2014,05,31,03,57,10.40
2014,05,31,03,58,10.40
2014,05,31,03,59,10.40
2014,05,31,04,00,10.40
2014,05,31,04,01,10.30
2014,05,31,04,02,10.30
2014,05,31,04,03,10.30
2014,05,31,04,04,10.30
2014,05,31,04,05,10.30
2014,05,31,04,06,10.30
2014,05,31,04,07,10.30
2014,05,31,04,08,10.20
2014,05,31,04,09,10.20
2014,05,31,04,10,10.20
2014,05,31,04,11,10.20
2014,05,31,04,12,10.20
2014,05,31,04,13,10.20
2014,05,31,04,14,10.10
2014,05,31,04,15,10.10
2014,05,31,04,16,10.10
2014,05,31,04,17,10.10
2014,05,31,04,18,10.10
2014,05,31,04,19,10.10
2014,05,31,04,20,10.00
2014,05,31,04,21,10.00
2014,05,31,04,22,10.00
2014,05,31,04,23,10.00
2014,05,31,04,24,9.90
2014,05,31,04,25,9.90
2014,05,31,04,26,9.90
2014,05,31,04,27,9.90
2014,05,31,04,28,9.80
2014,05,31,04,29,9.80
2014,05,31,04,30,9.80
2014,05,31,04,31,9.80
2014,05,31,04,32,9.80
2014,05,31,04,33,9.70
2014,05,31,04,34,9.70
2014,05,31,04,35,9.70
2014,05,31,04,36,9.70
2014,05,31,04,37,9.60
2014,05,31,04,38,9.60
2014,05,31,04,39,9.60
2014,05,31,04,40,9.50
2014,05,31,04,41,9.50
2014,05,31,04,42,9.50
2014,05,31,04,43,9.50
2014,05,31,04,44,9.50
2014,05,31,04,45,9.50
2014,05,31,04,46,9.50
2014,05,31,04,47,9.40
2014,05,31,04,48,9.40
2014,05,31,04,49,9.40
2014,05,31,04,50,9.40
2014,05,31,04,51,9.40
2014,05,31,04,52,9.40
2014,05,31,04,53,9.40
2014,05,31,04,54,9.40
2014,05,31,04,55,9.40
2014,05,31,04,56,9.40
2014,05,31,04,57,9.40
2014,05,31,04,58,9.40
2014,05,31,04,59,9.40
2014,05,31,05,00,9.40
2014,05,31,05,01,9.40
2014,05,31,05,02,9.40
2014,05,31,05,03,9.40
2014,05,31,05,04,9.40
2014,05,31,05,05,9.40
2014,05,31,05,06,9.50
2014,05,31,05,07,9.50
2014,05,31,05,08,9.50
2014,05,31,05,09,9.50
2014,05,31,05,10,9.60
2014,05,31,05,11,9.60
2014,05,31,05,12,9.60
2014,05,31,05,13,9.60
2014,05,31,05,14,9.60
2014,05,31,05,15,9.60
2014,05,31,05,16,9.50
2014,05,31,05,17,9.50
2014,05,31,05,18,9.50
2014,05,31,05,19,9.50
2014,05,31,05,20,9.50
2014,05,31,05,21,9.50
2014,05,31,05,22,9.50
2014,05,31,05,23,9.60
2014,05,31,05,24,9.60
2014,05,31,05,25,9.60
2014,05,31,05,26,9.70
2014,05,31,05,27,9.70
2014,05,31,05,28,9.70
2014,05,31,05,29,9.70
2014,05,31,05,30,9.80
2014,05,31,05,31,9.80
2014,05,31,05,32,9.80
2014,05,31,05,33,9.80
2014,05,31,05,34,9.80
2014,05,31,05,35,9.80
2014,05,31,05,36,9.80
2014,05,31,05,37,9.80
2014,05,31,05,38,9.80
2014,05,31,05,39,9.80
2014,05,31,05,40,9.80
2014,05,31,05,41,9.80
2014,05,31,05,42,9.90
2014,05,31,05,43,9.90
2014,05,31,05,44,9.90
2014,05,31,05,45,9.90
2014,05,31,05,46,9.90
2014,05,31,05,47,9.90
2014,05,31,05,48,10.00
2014,05,31,05,49,10.00
2014,05,31,05,50,10.00
2014,05,31,05,51,10.00
2014,05,31,05,52,10.10
2014,05,31,05,53,10.10
2014,05,31,05,54,10.10
2014,05,31,05,55,10.20
2014,05,31,05,56,10.20
2014,05,31,05,57,10.20
2014,05,31,05,58,10.30
2014,05,31,05,59,10.30
2014,05,31,06,00,10.30
2014,05,31,06,01,10.40
2014,05,31,06,02,10.40
2014,05,31,06,03,10.40
2014,05,31,06,04,10.40
2014,05,31,06,05,10.40
2014,05,31,06,06,10.50
2014,05,31,06,07,10.50
2014,05,31,06,08,10.50
2014,05,31,06,09,10.50
2014,05,31,06,10,10.60
2014,05,31,06,11,10.60
2014,05,31,06,12,10.60
2014,05,31,06,13,10.70
2014,05,31,06,14,10.70
2014,05,31,06,15,10.70
2014,05,31,06,16,10.80
2014,05,31,06,17,10.80
2014,05,31,06,18,10.80
2014,05,31,06,19,10.80
2014,05,31,06,20,10.90
2014,05,31,06,21,10.90
2014,05,31,06,22,10.90
2014,05,31,06,23,10.90
2014,05,31,06,24,10.90
2014,05,31,06,25,11.00
2014,05,31,06,26,11.00
2014,05,31,06,27,11.10
2014,05,31,06,28,11.10
2014,05,31,06,29,11.10
2014,05,31,06,30,11.20
2014,05,31,06,31,11.20
2014,05,31,06,32,11.20
2014,05,31,06,33,11.20
2014,05,31,06,34,11.20
2014,05,31,06,35,11.30
2014,05,31,06,36,11.30
2014,05,31,06,37,11.30
2014,05,31,06,38,11.30
2014,05,31,06,39,11.40
2014,05,31,06,40,11.40
2014,05,31,06,41,11.40
2014,05,31,06,42,11.50
2014,05,31,06,43,11.50
2014,05,31,06,44,11.50
2014,05,31,06,45,11.60
2014,05,31,06,46,11.60
2014,05,31,06,47,11.70
2014,05,31,06,48,11.70
2014,05,31,06,49,11.70
2014,05,31,06,50,11.80
2014,05,31,06,51,11.90
2014,05,31,06,52,11.90
2014,05,31,06,53,11.90
2014,05,31,06,54,11.90
2014,05,31,06,55,11.90
2014,05,31,06,56,11.80
2014,05,31,06,57,11.80
2014,05,31,06,58,11.80
2014,05,31,06,59,11.80
2014,05,31,07,00,11.80
2014,05,31,07,01,11.80
2014,05,31,07,02,11.80
2014,05,31,07,03,11.70
2014,05,31,07,04,11.70
2014,05,31,07,05,11.70
2014,05,31,07,06,11.70
2014,05,31,07,07,11.70
2014,05,31,07,08,11.70
2014,05,31,07,09,11.70
2014,05,31,07,10,11.80
2014,05,31,07,11,11.80
2014,05,31,07,12,11.90
2014,05,31,07,13,11.90
2014,05,31,07,14,11.90
2014,05,31,07,15,11.90
2014,05,31,07,16,12.00
2014,05,31,07,17,12.00
2014,05,31,07,18,12.00
2014,05,31,07,19,12.00
2014,05,31,07,20,12.00
2014,05,31,07,21,12.10
2014,05,31,07,22,12.20
2014,05,31,07,23,12.20
2014,05,31,07,24,12.30
2014,05,31,07,25,12.30
2014,05,31,07,26,12.30
2014,05,31,07,27,12.30
2014,05,31,07,28,12.30
2014,05,31,07,29,12.20
2014,05,31,07,30,12.20
2014,05,31,07,31,12.20
2014,05,31,07,32,12.20
2014,05,31,07,33,12.20
2014,05,31,07,34,12.20
2014,05,31,07,35,12.20
2014,05,31,07,36,12.30
2014,05,31,07,37,12.30
2014,05,31,07,38,12.40
2014,05,31,07,39,12.40
2014,05,31,07,40,12.50
2014,05,31,07,41,12.60
2014,05,31,07,42,12.70
2014,05,31,07,43,12.80
2014,05,31,07,44,12.90
2014,05,31,07,45,13.00
2014,05,31,07,46,13.10
2014,05,31,07,47,13.10
2014,05,31,07,48,13.20
2014,05,31,07,49,13.20
2014,05,31,07,50,13.20
2014,05,31,07,51,13.20
2014,05,31,07,52,13.20
2014,05,31,07,53,13.20
2014,05,31,07,54,13.20
2014,05,31,07,55,13.20
2014,05,31,07,56,13.20
2014,05,31,07,57,13.30
2014,05,31,07,58,13.30
2014,05,31,07,59,13.40
2014,05,31,08,00,13.50
2014,05,31,08,01,13.60
2014,05,31,08,02,13.70
2014,05,31,08,03,13.80
2014,05,31,08,04,13.80
2014,05,31,08,05,13.80
2014,05,31,08,06,13.80
2014,05,31,08,07,13.70
2014,05,31,08,08,13.70
2014,05,31,08,09,13.70
2014,05,31,08,10,13.70
2014,05,31,08,11,13.80
2014,05,31,08,12,13.80
2014,05,31,08,13,13.80
2014,05,31,08,14,13.80
2014,05,31,08,15,13.80
2014,05,31,08,16,13.80
2014,05,31,08,17,13.90
2014,05,31,08,18,13.80
2014,05,31,08,19,13.80
2014,05,31,08,20,13.90
2014,05,31,08,21,13.90
2014,05,31,08,22,13.90
2014,05,31,08,23,13.90
2014,05,31,08,24,13.90
2014,05,31,08,25,14.00
2014,05,31,08,26,14.00
2014,05,31,08,27,14.10
2014,05,31,08,28,14.10
2014,05,31,08,29,14.10
2014,05,31,08,30,14.20
2014,05,31,08,31,14.30
2014,05,31,08,32,14.30
2014,05,31,08,33,14.40
2014,05,31,08,34,14.50
2014,05,31,08,35,14.60
2014,05,31,08,36,14.60
2014,05,31,08,37,14.70
2014,05,31,08,38,14.70
2014,05,31,08,39,14.80
2014,05,31,08,40,14.80
2014,05,31,08,41,14.90
2014,05,31,08,42,15.00
2014,05,31,08,43,15.00
2014,05,31,08,44,15.10
2014,05,31,08,45,15.20
2014,05,31,08,46,15.20
2014,05,31,08,47,15.20
2014,05,31,08,48,15.10
2014,05,31,08,49,15.10
2014,05,31,08,50,15.00
2014,05,31,08,51,14.90
2014,05,31,08,52,14.90
2014,05,31,08,53,14.90
2014,05,31,08,54,14.90
2014,05,31,08,55,14.90
2014,05,31,08,56,14.80
2014,05,31,08,57,14.70
2014,05,31,08,58,14.70
2014,05,31,08,59,14.70
2014,05,31,09,00,14.70
2014,05,31,09,01,14.70
2014,05,31,09,02,14.80
2014,05,31,09,03,14.80
2014,05,31,09,04,14.90
2014,05,31,09,05,15.00
2014,05,31,09,06,15.10
2014,05,31,09,07,15.30
2014,05,31,09,08,15.40
2014,05,31,09,09,15.50
2014,05,31,09,10,15.70
2014,05,31,09,11,15.80
2014,05,31,09,12,15.90
2014,05,31,09,13,16.00
2014,05,31,09,14,16.10
2014,05,31,09,15,16.20
2014,05,31,09,16,16.20
2014,05,31,09,17,16.20
2014,05,31,09,18,16.20
2014,05,31,09,19,16.20
2014,05,31,09,20,16.20
2014,05,31,09,21,16.10
2014,05,31,09,22,16.10
2014,05,31,09,23,16.10
2014,05,31,09,24,16.20
2014,05,31,09,25,16.20
2014,05,31,09,26,16.20
2014,05,31,09,27,16.30
2014,05,31,09,28,16.30
2014,05,31,09,29,16.40
2014,05,31,09,30,16.40
2014,05,31,09,31,16.40
2014,05,31,09,32,16.50
2014,05,31,09,33,16.50
2014,05,31,09,34,16.50
2014,05,31,09,35,16.60
2014,05,31,09,36,16.60
2014,05,31,09,37,16.70
2014,05,31,09,38,16.80
2014,05,31,09,39,16.80
2014,05,31,09,40,16.80
2014,05,31,09,41,16.90
2014,05,31,09,42,16.90
2014,05,31,09,43,16.90
2014,05,31,09,44,17.00
2014,05,31,09,45,17.10
2014,05,31,09,46,17.20
2014,05,31,09,47,17.30
2014,05,31,09,48,17.40
2014,05,31,09,49,17.60
2014,05,31,09,50,17.60
2014,05,31,09,51,17.60
2014,05,31,09,52,17.60
2014,05,31,09,53,17.60
2014,05,31,09,54,17.60
2014,05,31,09,55,17.60
2014,05,31,09,56,17.60
2014,05,31,09,57,17.70
2014,05,31,09,58,17.70
2014,05,31,09,59,17.80
2014,05,31,10,00,17.90
2014,05,31,10,01,17.90
2014,05,31,10,02,17.80
2014,05,31,10,03,17.60
2014,05,31,10,04,17.40
2014,05,31,10,05,17.30
2014,05,31,10,06,17.10
2014,05,31,10,07,16.90
2014,05,31,10,08,16.70
2014,05,31,10,09,16.60
2014,05,31,10,10,16.50
2014,05,31,10,11,16.40
2014,05,31,10,12,16.30
2014,05,31,10,13,16.20
2014,05,31,10,14,16.20
2014,05,31,10,15,16.20
2014,05,31,10,16,16.20
2014,05,31,10,17,16.30
2014,05,31,10,18,16.30
2014,05,31,10,19,16.30
2014,05,31,10,20,16.30
2014,05,31,10,21,16.30
2014,05,31,10,22,16.30
2014,05,31,10,23,16.30
2014,05,31,10,24,16.30
2014,05,31,10,25,16.30
2014,05,31,10,26,16.30
2014,05,31,10,27,16.30
2014,05,31,10,28,16.30
2014,05,31,10,29,16.30
2014,05,31,10,30,16.20
2014,05,31,10,31,16.20
2014,05,31,10,32,16.20
2014,05,31,10,33,16.20
2014,05,31,10,34,16.10
2014,05,31,10,35,16.00
2014,05,31,10,36,15.90
2014,05,31,10,37,15.90
2014,05,31,10,38,15.80
2014,05,31,10,39,15.80
2014,05,31,10,40,15.80
2014,05,31,10,41,15.80
2014,05,31,10,42,15.90
2014,05,31,10,43,15.90
2014,05,31,10,44,16.00
2014,05,31,10,45,16.10
2014,05,31,10,46,16.10
2014,05,31,10,47,16.10
2014,05,31,10,48,16.20
2014,05,31,10,49,16.20
2014,05,31,10,50,16.20
2014,05,31,10,51,16.20
2014,05,31,10,52,16.20
2014,05,31,10,53,16.30
2014,05,31,10,54,16.30
2014,05,31,10,55,16.30
2014,05,31,10,56,16.40
2014,05,31,10,57,16.40
2014,05,31,10,58,16.40
2014,05,31,10,59,16.50
2014,05,31,11,00,16.50
2014,05,31,11,01,16.50
2014,05,31,11,02,16.50
2014,05,31,11,03,16.60
2014,05,31,11,04,16.50
2014,05,31,11,05,16.50
2014,05,31,11,06,16.40
2014,05,31,11,07,16.40
2014,05,31,11,08,16.40
2014,05,31,11,09,16.50
2014,05,31,11,10,16.50
2014,05,31,11,11,16.60
2014,05,31,11,12,16.60
2014,05,31,11,13,16.50
2014,05,31,11,14,16.50
2014,05,31,11,15,16.50
2014,05,31,11,16,16.60
2014,05,31,11,17,16.50
2014,05,31,11,18,16.60
2014,05,31,11,19,16.60
2014,05,31,11,20,16.60
2014,05,31,11,21,16.60
2014,05,31,11,22,16.60
2014,05,31,11,23,16.60
2014,05,31,11,24,16.50
2014,05,31,11,25,16.60
2014,05,31,11,26,16.70
2014,05,31,11,27,16.70
2014,05,31,11,28,16.80
2014,05,31,11,29,16.80
2014,05,31,11,30,16.80
2014,05,31,11,31,16.80
2014,05,31,11,32,16.90
2014,05,31,11,33,16.90
2014,05,31,11,34,17.00
2014,05,31,11,35,17.00
2014,05,31,11,36,17.00
2014,05,31,11,37,17.00
2014,05,31,11,38,17.00
2014,05,31,11,39,17.00
2014,05,31,11,40,16.90
2014,05,31,11,41,17.00
2014,05,31,11,42,17.00
2014,05,31,11,43,17.00
2014,05,31,11,44,17.10
2014,05,31,11,45,17.10
2014,05,31,11,46,17.00
2014,05,31,11,47,17.00
2014,05,31,11,48,17.00
2014,05,31,11,49,17.00
2014,05,31,11,50,17.00
2014,05,31,11,51,17.00
2014,05,31,11,52,17.10
2014,05,31,11,53,17.20
2014,05,31,11,54,17.30
2014,05,31,11,55,17.40
2014,05,31,11,56,17.40
2014,05,31,11,57,17.40
2014,05,31,11,58,17.40
2014,05,31,11,59,17.40
2014,05,31,12,00,17.50
2014,05,31,12,01,17.50
2014,05,31,12,02,17.60
2014,05,31,12,03,17.60
2014,05,31,12,04,17.60
2014,05,31,12,05,17.60
2014,05,31,12,06,17.60
2014,05,31,12,07,17.60
2014,05,31,12,08,17.60
2014,05,31,12,09,17.60
2014,05,31,12,10,17.70
2014,05,31,12,11,17.70
2014,05,31,12,12,17.80
2014,05,31,12,13,17.80
2014,05,31,12,14,17.80
2014,05,31,12,15,17.80
2014,05,31,12,16,17.70
2014,05,31,12,17,17.80
2014,05,31,12,18,17.80
2014,05,31,12,19,17.90
2014,05,31,12,20,18.10
2014,05,31,12,21,18.10
2014,05,31,12,22,18.20
2014,05,31,12,23,18.20
2014,05,31,12,24,18.20
2014,05,31,12,25,18.10
2014,05,31,12,26,18.00
2014,05,31,12,27,17.90
2014,05,31,12,28,17.90
2014,05,31,12,29,18.00
2014,05,31,12,30,18.00
2014,05,31,12,31,18.10
2014,05,31,12,32,18.10
2014,05,31,12,33,18.10
2014,05,31,12,34,18.10
2014,05,31,12,35,18.10
2014,05,31,12,36,18.00
2014,05,31,12,37,17.90
2014,05,31,12,38,17.90
2014,05,31,12,39,17.80
2014,05,31,12,40,17.70
2014,05,31,12,41,17.60
2014,05,31,12,42,17.50
2014,05,31,12,43,17.40
2014,05,31,12,44,17.40
2014,05,31,12,45,17.30
2014,05,31,12,46,17.30
2014,05,31,12,47,17.30
2014,05,31,12,48,17.40
2014,05,31,12,49,17.40
2014,05,31,12,50,17.40
2014,05,31,12,51,17.50
2014,05,31,12,52,17.50
2014,05,31,12,53,17.60
2014,05,31,12,54,17.60
2014,05,31,12,55,17.60
2014,05,31,12,56,17.70
2014,05,31,12,57,17.80
2014,05,31,12,58,17.80
2014,05,31,12,59,17.80
2014,05,31,13,00,17.80
2014,05,31,13,01,17.90
2014,05,31,13,02,18.00
2014,05,31,13,03,18.10
2014,05,31,13,04,18.20
2014,05,31,13,05,18.30
2014,05,31,13,06,18.40
2014,05,31,13,07,18.50
2014,05,31,13,08,18.50
2014,05,31,13,09,18.50
2014,05,31,13,10,18.50
2014,05,31,13,11,18.60
2014,05,31,13,12,18.60
2014,05,31,13,13,18.60
2014,05,31,13,14,18.50
2014,05,31,13,15,18.50
2014,05,31,13,16,18.50
2014,05,31,13,17,18.50
2014,05,31,13,18,18.50
2014,05,31,13,19,18.40
2014,05,31,13,20,18.40
2014,05,31,13,21,18.40
2014,05,31,13,22,18.40
2014,05,31,13,23,18.40
2014,05,31,13,24,18.50
2014,05,31,13,25,18.60
2014,05,31,13,26,18.70
2014,05,31,13,27,18.70
2014,05,31,13,28,18.80
2014,05,31,13,29,18.80
2014,05,31,13,30,18.80
2014,05,31,13,31,18.80
2014,05,31,13,32,18.80
2014,05,31,13,33,18.70
2014,05,31,13,34,18.70
2014,05,31,13,35,18.60
2014,05,31,13,36,18.50
2014,05,31,13,37,18.40
2014,05,31,13,38,18.40
2014,05,31,13,39,18.50
2014,05,31,13,40,18.60
2014,05,31,13,41,18.70
2014,05,31,13,42,18.70
2014,05,31,13,43,18.70
2014,05,31,13,44,18.70
2014,05,31,13,45,18.80
2014,05,31,13,46,18.80
2014,05,31,13,47,18.80
2014,05,31,13,48,18.80
2014,05,31,13,49,18.80
2014,05,31,13,50,18.80
2014,05,31,13,51,18.90
2014,05,31,13,52,18.90
2014,05,31,13,53,19.00
2014,05,31,13,54,19.10
2014,05,31,13,55,19.20
2014,05,31,13,56,19.20
2014,05,31,13,57,19.10
2014,05,31,13,58,19.10
2014,05,31,13,59,19.10
2014,05,31,14,00,19.10
2014,05,31,14,01,19.00
2014,05,31,14,02,19.00
2014,05,31,14,03,19.10
2014,05,31,14,04,19.20
2014,05,31,14,05,19.30
2014,05,31,14,06,19.40
2014,05,31,14,07,19.40
2014,05,31,14,08,19.40
2014,05,31,14,09,19.40
2014,05,31,14,10,19.50
2014,05,31,14,11,19.60
2014,05,31,14,12,19.60
2014,05,31,14,13,19.50
2014,05,31,14,14,19.40
2014,05,31,14,15,19.40
2014,05,31,14,16,19.40
2014,05,31,14,17,19.40
2014,05,31,14,18,19.40
2014,05,31,14,19,19.40
2014,05,31,14,20,19.30
2014,05,31,14,21,19.30
2014,05,31,14,22,19.20
2014,05,31,14,23,19.20
2014,05,31,14,24,19.20
2014,05,31,14,25,19.30
2014,05,31,14,26,19.30
2014,05,31,14,27,19.30
2014,05,31,14,28,19.20
2014,05,31,14,29,19.20
2014,05,31,14,30,19.30
2014,05,31,14,31,19.30
2014,05,31,14,32,19.40
2014,05,31,14,33,19.40
2014,05,31,14,34,19.40
2014,05,31,14,35,19.40
2014,05,31,14,36,19.50
2014,05,31,14,37,19.60
2014,05,31,14,38,19.60
2014,05,31,14,39,19.60
2014,05,31,14,40,19.70
2014,05,31,14,41,19.70
2014,05,31,14,42,19.70
2014,05,31,14,43,19.80
2014,05,31,14,44,19.80
2014,05,31,14,45,19.70
2014,05,31,14,46,19.70
2014,05,31,14,47,19.70
2014,05,31,14,48,19.70
2014,05,31,14,49,19.80
2014,05,31,14,50,19.80
2014,05,31,14,51,19.80
2014,05,31,14,52,19.90
2014,05,31,14,53,20.00
2014,05,31,14,54,20.10
2014,05,31,14,55,20.20
2014,05,31,14,56,20.20
2014,05,31,14,57,20.20
2014,05,31,14,58,20.20
2014,05,31,14,59,20.20
2014,05,31,15,00,20.20
2014,05,31,15,01,20.20
2014,05,31,15,02,20.20
2014,05,31,15,03,20.20
2014,05,31,15,04,20.20
2014,05,31,15,05,20.30
2014,05,31,15,06,20.30
2014,05,31,15,07,20.30
2014,05,31,15,08,20.30
2014,05,31,15,09,20.30
2014,05,31,15,10,20.40
2014,05,31,15,11,20.40
2014,05,31,15,12,20.50
2014,05,31,15,13,20.60
2014,05,31,15,14,20.60
2014,05,31,15,15,20.70
2014,05,31,15,16,20.60
2014,05,31,15,17,20.60
2014,05,31,15,18,20.60
2014,05,31,15,19,20.60
2014,05,31,15,20,20.50
2014,05,31,15,21,20.50
2014,05,31,15,22,20.50
2014,05,31,15,23,20.50
2014,05,31,15,24,20.50
2014,05,31,15,25,20.50
2014,05,31,15,26,20.50
2014,05,31,15,27,20.40
2014,05,31,15,28,20.40
2014,05,31,15,29,20.30
2014,05,31,15,30,20.40
2014,05,31,15,31,20.40
2014,05,31,15,32,20.50
2014,05,31,15,33,20.60
2014,05,31,15,34,20.50
2014,05,31,15,35,20.60
2014,05,31,15,36,20.60
2014,05,31,15,37,20.60
2014,05,31,15,38,20.60
2014,05,31,15,39,20.70
2014,05,31,15,40,20.70
2014,05,31,15,41,20.70
2014,05,31,15,42,20.60
2014,05,31,15,43,20.60
2014,05,31,15,44,20.60
2014,05,31,15,45,20.60
2014,05,31,15,46,20.60
2014,05,31,15,47,20.50
2014,05,31,15,48,20.50
2014,05,31,15,49,20.60
2014,05,31,15,50,20.60
2014,05,31,15,51,20.70
2014,05,31,15,52,20.70
2014,05,31,15,53,20.70
2014,05,31,15,54,20.70
2014,05,31,15,55,20.70
2014,05,31,15,56,20.70
2014,05,31,15,57,20.60
2014,05,31,15,58,20.60
2014,05,31,15,59,20.70
2014,05,31,16,00,20.70
2014,05,31,16,01,20.70
2014,05,31,16,02,20.70
2014,05,31,16,03,20.70
2014,05,31,16,04,20.70
2014,05,31,16,05,20.70
2014,05,31,16,06,20.70
2014,05,31,16,07,20.70
2014,05,31,16,08,20.70
2014,05,31,16,09,20.70
2014,05,31,16,10,20.70
2014,05,31,16,11,20.70
2014,05,31,16,12,20.80
2014,05,31,16,13,20.80
2014,05,31,16,14,20.80
2014,05,31,16,15,20.80
2014,05,31,16,16,20.80
2014,05,31,16,17,20.80
2014,05,31,16,18,20.80
2014,05,31,16,19,20.80
2014,05,31,16,20,20.70
2014,05,31,16,21,20.70
2014,05,31,16,22,20.70
2014,05,31,16,23,20.70
2014,05,31,16,24,20.70
2014,05,31,16,25,20.70
2014,05,31,16,26,20.70
2014,05,31,16,27,20.70
2014,05,31,16,28,20.60
2014,05,31,16,29,20.70
2014,05,31,16,30,20.70
2014,05,31,16,31,20.80
2014,05,31,16,32,20.80
2014,05,31,16,33,20.80
2014,05,31,16,34,20.80
2014,05,31,16,35,20.90
2014,05,31,16,36,20.90
2014,05,31,16,37,20.90
2014,05,31,16,38,20.90
2014,05,31,16,39,20.90
2014,05,31,16,40,20.80
2014,05,31,16,41,20.80
2014,05,31,16,42,20.90
2014,05,31,16,43,20.80
2014,05,31,16,44,20.80
2014,05,31,16,45,20.80
2014,05,31,16,46,20.80
2014,05,31,16,47,20.80
2014,05,31,16,48,20.80
2014,05,31,16,49,20.80
2014,05,31,16,50,20.80
2014,05,31,16,51,20.80
2014,05,31,16,52,20.80
2014,05,31,16,53,20.80
2014,05,31,16,54,20.80
2014,05,31,16,55,20.80
2014,05,31,16,56,20.70
2014,05,31,16,57,20.70
2014,05,31,16,58,20.70
2014,05,31,16,59,20.70
2014,05,31,17,00,20.70
2014,05,31,17,01,20.80
2014,05,31,17,02,20.80
2014,05,31,17,03,20.80
2014,05,31,17,04,20.90
2014,05,31,17,05,20.90
2014,05,31,17,06,20.80
2014,05,31,17,07,20.80
2014,05,31,17,08,20.80
2014,05,31,17,09,20.80
2014,05,31,17,10,20.80
2014,05,31,17,11,20.80
2014,05,31,17,12,20.80
2014,05,31,17,13,20.80
2014,05,31,17,14,20.70
2014,05,31,17,15,20.70
2014,05,31,17,16,20.70
2014,05,31,17,17,20.70
2014,05,31,17,18,20.70
2014,05,31,17,19,20.80
2014,05,31,17,20,20.80
2014,05,31,17,21,20.80
2014,05,31,17,22,20.80
2014,05,31,17,23,20.80